www.pogodaiklimat.ru

Погода и климат >> Архив погоды >> Аргентина >> Сан-Луис


ПОГОДА в Сан-Луисе

  • Прогноз погоды в Сан-Луисе
  • Монитор погоды в Сан-Луисе

АРХИВ ПОГОДЫ в Сан-Луисе

Время (UTC), дата Ветер
(напр.,м/с)
 
Видим.   Явления Облачность Т
(С)
Тd
(С)
f
(%)
Тe
(С)
Тes
(С)
Комфортность P
(гПа)
Po
(гПа)
Тmin
(С)
Tmax
(С)
R
(мм)
R24
(мм)
S
(см)
12 17.01 В 9 5000 м слаб. дождь 10/8 1050 м
[Frnb As op]
+14.3 +11.6 84 +12 +12 1018.6 938.5 +13.9 +28.3 4
15 17.01 ЮВ 7 5000 м слаб. морось {дождь} 10/9 600 м
[Frnb As trans]
+14.5 +13.3 93 +12 +12 1022.4 940.8
18 17.01 В 8 8000 м слаб. морось {дождь} 10/10 600 м
[Frnb]
+14.1 +12.5 90 +12 +12 1022.8 940.6 5
21 17.01 В 9 20 км {морось} 10/5 750 м
[Frnb As op]
+15.8 +11.5 76 +14 +14 1021.7 939.7
00 18.01 ЮВ 6 20 км {морось} 9/5 750 м
[Frnb As op]
+13.4 +9.0 75 +11 +11 1024.3 941.7 +13.4 +16.4 0.3
03 18.01 В 6 20 км 1/1 1050 м
[Sc]
+12.3 +8.6 78 +10 +10 1024.7 942.0
06 18.01 В 3 20 км ясно +11.4 +8.0 80 +10 +10 1023.6 940.8
09 18.01 В 3 20 км ясно +8.8 +8.0 95 +6 +6 1022.6 939.7
12 18.01 С 2 20 км 1/1 1200 м
[Sc]
+13.5 +10.5 82 +13 +18 1023.9 941.3 +7.9 +13.5 5
15 18.01 ЮЗ 3 20 км 1/1 1200 м
[Sc]
+20.1 +9.4 50 +22 +35 комфорт 1022.6 940.8
18 18.01 ЮЗ 2 20 км 3/3 1200 м
[Sc]
+24.7 +8.7 36 +25 +38 комфорт 1019.3 938.2
21 18.01 В 4 20 км 1/1 1200 м
[Sc]
+25.3 +11.9 43 +27 +30 жарко 1017.3 936.2
00 19.01 В 5 20 км 1/1 1200 м
[Sc]
+20.5 +12.8 61 +23 +23 комфорт 1018.2 937.0 +13.5 +25.6
03 19.01 В 2 20 км 4/1 1200 м
[Sc Ac As]
+19.7 +12.7 64 +22 +22 комфорт 1018.7 938.2
06 19.01 С 3 20 км ясно +17.3 +12.6 74 +17 +17 1017.8 937.7
09 19.01 СВ 4 20 км ясно +15.9 +11.8 77 +15 +15 1017.5 937.3
12 19.01 С 6 20 км ясно +20.6 +13.1 62 +23 +25 комфорт 1018.2 937.8 +13.1 +20.6
15 19.01 С 6 20 км ясно +23.4 +13.6 54 +27 +35 душно 1016.9 937.0
18 19.01 С 4 20 км 3/3 1050 м
[Sc]
+26.6 +13.2 44 +29 +37 жарко 1014.4 934.8
21 19.01 СЗ 3 20 км 1/1 1050 м
[Sc]
+28.3 +14.1 42 +30 +34 жарко 1011.9 932.5
00 20.01 С 4 20 км 1/1 1050 м
[Sc]
+24.0 +11.7 46 +26 +26 жарко 1012.2 932.8 +20.6 +28.5
03 20.01 С 4 20 км ясно +18.4 +10.5 60 +19 +19 1014.1 934.2
06 20.01 С 4 20 км ясно +17.1 +10.8 66 +17 +17 1011.5 932.1
09 20.01 С 5 20 км ясно +15.9 +10.2 69 +15 +15 1010.7 931.4
12 20.01 С 7 20 км 4/0
[Ac As Ci]
+20.3 +11.4 57 +22 +23 комфорт 1011.0 931.7 +15.7 +24.1
15 20.01 С 9 20 км 3/0
[Ac As Ci sp]
+24.3 +12.7 48 +26 +28 жарко 1010.6 931.0
18 20.01 С 7 20 км 3/0
[Ci sp]
+28.9 +14.7 42 +31 +36 жарко 1007.6 928.8
21 20.01 СЗ 5 20 км 1/0
[Ci sp]
+28.9 +14.9 43 +31 +34 жарко 1005.7 926.9
00 21.01 штиль 0 50 км ?/? +23.7 +14.7 57 +26 +26 жарко 1006.2 927.2 +20.3 +30.0
03 21.01 С 4 20 км 5/0
[Cs]
+15.0 +15 +15 1007.9 929.0
06 21.01 С 4 20 км 4/0
[Cs]
+20.0 +15.4 75 +22 +22 комфорт 1008.3 929.4
09 21.01 С 3 20 км 6/0
[Cs]
+18.4 +14.7 79 +19 +19 1008.3 929.6
12 21.01 С 4 20 км 8/0
[Ac As Cs]
+22.3 +16.9 71 +27 +29 душно 1012.1 932.9 +17.6 +23.7
15 21.01 В 5 20 км 6/6 1200 м
[Sc]
+26.9 +17.8 57 +31 +35 душно 1011.8 932.9
18 21.01 ЮВ 6 20 км 8/8 1200 м
[Sc diur, vesp]
+31.5 +16.9 42 +35 +36 очень
душно
1009.0 930.6
21 21.01 В 9 20 км 3/3 1050 м
[Sc]
+30.9 +14.9 38 +33 +33 душно 1006.4 928.1
00 22.01 В 7 20 км 1/1 1050 м
[Sc]
+28.1 +18.2 55 +33 +33 очень
душно
1007.1 928.9 +22.3 +32.5
03 22.01 СВ 4 20 км ясно +24.6 +16.6 61 +28 +28 душно 1008.5 930.2
06 22.01 С 6 20 км 1/0 1000 м
[Ci sp]
+22.3 +16.2 68 +26 +26 жарко 1006.5 928.6
09 22.01 С 6 20 км 5/0
[Cs]
+21.9 +17.0 74 +26 +26 душно 1006.4 928.5
12 22.01 С 5 20 км 8/0
[Cs]
+25.0 +19.6 72 +30 +33 душно 1007.6 929.8 +20.9 +28.1
15 22.01 С 3 20 км 9/1 1200 м
[Sc Cs]
+29.3 +19.6 56 +35 +47 очень
душно
1007.3 929.4
18 22.01 В 5 20 км 8/4 1200 м
[Sc Cs]
+33.3 +18.9 43 +38 +44 очень
душно
1004.9 927.4
21 22.01 ЮВ 1 20 км 9/4 1200 м
[Sc Cs]
+34.3 +18.7 40 +39 +42 очень
душно
1003.1 925.8
00 23.01 В 4 20 км 6/1 1200 м
[Sc Cs]
+30.5 +21.1 57 +38 +38 очень
душно
1004.4 927.0 +25.6 +34.6
03 23.01 В 3 20 км 3/1 1050 м
[Sc Cs]
+26.9 +21.0 70 +34 +34 очень
душно
1006.5 929.0
06 23.01 штиль 0 20 км 1/1 1200 м
[Sc]
+26.6 +20.2 68 +33 +33 очень
душно
1005.8 928.8
09 23.01 ЮВ 2 20 км 1/1 1200 м
[Cu hum]
+24.4 +19.6 75 +30 +30 очень
душно
1006.1 929.0
12 23.01 Ю 2 20 км 3/3 1200 м
[Cu hum]
+29.9 +20.4 57 +37 +41 очень
душно
1007.3 930.2 +23.9 +30.5
15 23.01 Ю 5 20 км 8/6 1200 м
[Cu med, cong Ac As]
+31.6 +23.1 61 +42 +45 опасность
перегрева
1008.3 931.0
18 23.01 В 6 20 км осадки на расстоянии 8/8 1200 м
[Cb calv Ac As]
+32.2 +24.1 62 +44 +45 опасность
перегрева
1006.8 929.6
21 23.01 В 9 20 км осадки на расстоянии 5/4 1200 м
[Cb calv Ac As]
+30.9 +21.0 56 +38 +39 очень
душно
1006.3 928.6
00 24.01 В 7 20 км 4/1 1350 м
[Cb calv Ci sp]
+28.6 +20.7 62 +35 +35 очень
душно
1005.1 928.0 +28.6 +33.2
03 24.01 В 2 20 км зарница 4/4 1200 м
[Cb cap]
+26.4 +20.8 71 +33 +33 очень
душно
1007.0 929.7
06 24.01 СЗ 5 20 км зарница 5/5 1200 м
[Cb cap]
+25.3 +20.7 76 +32 +32 очень
душно
1007.3 929.8
09 24.01 СЗ 5 20 км гроза без осадков 8/8 1200 м
[Cb cap]
+24.1 +21.3 84 +30 +30 очень
душно
1006.7 929.0

 

Местоположение метеостанции Сан-Луис (Аргентина): широта -33.26 долгота -66.35 высота над уровнем моря 713 м.

В архиве по умолчанию представлена погода в Сан-Луисе за последнюю неделю. Архивные данные за месяц целиком и за предыдущие месяцы, начиная с января 2011 года, Вы можете получить, выбрав интересующий диапазон дат из раскрывающегося списка и нажав кнопку "Ввод!".


*Определитесь, кто Вы:
робот инопланетянин человек

Внимание! Время в таблицах - всемирное. Для получения местного времени необходимо прибавить поправку, которая равна -3 ч.

Смотрите также архив погоды в соседних городах и на ближайших метеорологических станциях:

Погода в Вилья Рейнольдс (Аргентина) (104 км)
Погода в Вилла Долорес (Аргентина) (185 км)
Погода в Сан-Мартине (Аргентина) (193 км)
Погода в Рио-Куарто (Аргентина) (195 км)
Погода в Мендосе (Аргентина) (232 км)
Погода в Сан-Рафаэле (Аргентина) (239 км)
Погода в Сан-Хуане (Аргентина) (283 км)
Погода в Пиларе (Аргентина) (292 км)
Погода в Лабоулайе (Аргентина) (293 км)
Погода в Кордове (Аргентина) (296 км)

Пояснения к столбцам:

Ветер - указаны скорость ветра в м/с - средняя за 10 мин, порывы в срок и между сроками (в фигурных скобках) и направление, откуда дует ветер: С - северный, СВ - северо-восточный, В - восточный, ЮВ - юго-восточный, Ю - южный, ЮЗ - юго-западный, З - западный, СЗ - северо-западный.
Видимость - горизонтальная дальность видимости в метрах или километрах. При видимости от 1 до 10 км при отсутствии осадков обычно наблюдается дымка, при ухудшении видимости до 1 км и менее - туман. В сухую погоду видимость может ухудшаться дымом, пылью или мглою.
Явления - указаны атмосферные явления, наблюдавшиеся в срок или в последний час перед сроком; фигурными скобками обозначены явления, наблюдавшиеся между сроками (за 1-3 часа до срока); квадратными скобками обозначены град или гололедные отложения с указанием их диаметра в мм.
Облачность - указаны через наклонную черту общая и нижняя облачность в баллах и высота нижней границы облаков в метрах; квадратными скобками обозначены формы облаков: Ci - перистые, Cs - перисто-слоистые, Cc - перисто-кучевые, Ac - высококучевые, As - высокослоистые, Sc - слоисто-кучевые, Ns - слоисто-дождевые, Cu - кучевые, Cb - кучево-дождевые. Подробнее классификацию облаков см. в Атласе облаков (PDF).
T - Температура воздуха - температура, измеренная на высоте 2 м над землей.
Td - Температура точки росы - температура, при понижении до которой содержащийся в воздухе водяной пар достигнет насыщения.
f - Относительная влажность воздуха - влажноcть воздуха, измеренная на высоте 2 м над землей.
Te - Эффективная температура - температура, которую ощущает одетый по сезону человек в тени. Характеристика душности погоды. При расчете учитывается влияние влажности воздуха и скорости ветра на теплоощущения человека.
Tes - Эффективная температура на солнце - температура, которую ощущает человек, с поправкой на солнечный нагрев. Характеристика знойности погоды. Зависит от высоты солнца над горизонтом, облачности и скорости ветра. Ночью, в пасмурную погоду, а также при ветре 12 м/с и более поправка равна нулю.
P - Атмосферное давление - приведенное к уровню моря атмосферное давление.
Po - Атмосферное давление - измеренное на уровне метеостанции атмосферное давление.
Tmin - Минимальная температура - минимум температуры воздуха на высоте 2 м над землей.
Tmax - Максимальная температура - максимум температуры воздуха на высоте 2 м над землей.
R - Количество осадков - Количество выпавших осадков за период времени, мм. При наведении курсора мыши на число - период времени, за который выпало указанное количество осадков.
R24 - Количество осадков - Количество выпавших осадков за 24 часа, мм.
S - Снежный покров - Высота снежного покрова, см. При наведении курсора мыши на число - состояние снежного покрова и степень покрытия местности в баллах.